Time,TemperatureF,DewpointF,PressureIn,WindDirection,WindDirectionDegrees,WindSpeedMPH,WindSpeedGustMPH,Humidity,HourlyPrecipIn,Conditions,Clouds,dailyrainin,SoftwareType,DateUTC
2013-03-15 00:00:00,25.1,10.8,29.81,WSW,252,4.0,12.0,54,0.00,,,0.00,Wunderground v.1.15,2013-03-15 04:00:00,
2013-03-15 00:10:00,25.0,10.7,29.81,West,264,4.0,4.0,54,0.00,,,0.00,Wunderground v.1.15,2013-03-15 04:10:00,
2013-03-15 00:20:00,24.9,10.6,29.81,WNW,293,4.0,12.0,54,0.00,,,0.00,Wunderground v.1.15,2013-03-15 04:20:00,
2013-03-15 00:30:00,24.7,10.8,29.81,West,267,4.0,12.0,55,0.00,,,0.00,Wunderground v.1.15,2013-03-15 04:30:00,
2013-03-15 00:40:00,24.6,10.7,29.81,West,281,5.0,5.0,55,0.00,,,0.00,Wunderground v.1.15,2013-03-15 04:40:00,
2013-03-15 00:50:00,24.5,10.6,29.82,WNW,284,3.0,12.0,55,0.00,,,0.00,Wunderground v.1.15,2013-03-15 04:50:00,
2013-03-15 01:00:00,24.4,10.5,29.82,West,271,5.0,5.0,55,0.00,,,0.00,Wunderground v.1.15,2013-03-15 05:00:00,
2013-03-15 01:10:00,24.3,10.8,29.82,West,271,3.0,3.0,56,0.00,,,0.00,Wunderground v.1.15,2013-03-15 05:10:00,
2013-03-15 01:20:00,24.2,10.3,29.82,North,352,4.0,4.0,55,0.00,,,0.00,Wunderground v.1.15,2013-03-15 05:20:00,
2013-03-15 01:30:00,24.2,10.3,29.83,NW,308,5.0,5.0,55,0.00,,,0.00,Wunderground v.1.15,2013-03-15 05:30:00,
2013-03-15 01:40:00,24.2,10.7,29.83,WSW,240,4.0,4.0,56,0.00,,,0.00,Wunderground v.1.15,2013-03-15 05:40:00,
2013-03-15 01:50:00,24.3,10.8,29.83,WNW,284,3.0,3.0,56,0.00,,,0.00,Wunderground v.1.15,2013-03-15 05:50:00,
2013-03-15 02:00:00,24.2,10.3,29.83,WNW,293,4.0,4.0,55,0.00,,,0.00,Wunderground v.1.15,2013-03-15 06:00:00,
2013-03-15 02:10:00,24.1,10.2,29.83,West,262,5.0,5.0,55,0.00,,,0.00,Wunderground v.1.15,2013-03-15 06:10:00,
2013-03-15 02:20:00,24.0,11.0,29.83,West,274,5.0,12.0,57,0.00,,,0.00,Wunderground v.1.15,2013-03-15 06:20:00,
2013-03-15 02:30:00,23.9,10.1,29.83,NW,307,5.0,5.0,55,0.00,,,0.00,Wunderground v.1.15,2013-03-15 06:30:00,
2013-03-15 02:40:00,23.9,10.5,29.83,SW,221,5.0,5.0,56,0.00,,,0.00,Wunderground v.1.15,2013-03-15 06:40:00,
2013-03-15 02:50:00,23.8,10.8,29.83,WNW,283,4.0,4.0,57,0.00,,,0.00,Wunderground v.1.15,2013-03-15 06:50:00,
2013-03-15 03:00:00,23.8,11.2,29.83,West,276,3.0,12.0,58,0.00,,,0.00,Wunderground v.1.15,2013-03-15 07:00:00,
2013-03-15 03:10:00,23.8,11.2,29.82,WSW,241,3.0,12.0,58,0.00,,,0.00,Wunderground v.1.15,2013-03-15 07:10:00,
2013-03-15 03:20:00,23.8,11.5,29.82,WSW,255,4.0,12.0,59,0.00,,,0.00,Wunderground v.1.15,2013-03-15 07:20:00,
2013-03-15 03:30:00,23.8,11.5,29.82,West,266,4.0,4.0,59,0.00,,,0.00,Wunderground v.1.15,2013-03-15 07:30:00,
2013-03-15 03:40:00,23.8,11.5,29.82,NW,316,4.0,4.0,59,0.00,,,0.00,Wunderground v.1.15,2013-03-15 07:40:00,
2013-03-15 03:50:00,23.7,11.4,29.82,West,259,4.0,4.0,59,0.00,,,0.00,Wunderground v.1.15,2013-03-15 07:50:00,
2013-03-15 04:00:00,23.7,11.4,29.82,SW,222,5.0,12.0,59,0.00,,,0.00,Wunderground v.1.15,2013-03-15 08:00:00,
2013-03-15 04:10:00,23.8,11.9,29.82,West,280,4.0,12.0,60,0.00,,,0.00,Wunderground v.1.15,2013-03-15 08:10:00,
2013-03-15 04:20:00,23.7,11.4,29.82,WNW,290,4.0,12.0,59,0.00,,,0.00,Wunderground v.1.15,2013-03-15 08:20:00,
2013-03-15 04:30:00,23.6,11.4,29.83,WSW,248,4.0,4.0,59,0.00,,,0.00,Wunderground v.1.15,2013-03-15 08:30:00,
2013-03-15 04:40:00,23.6,10.6,29.82,SW,236,5.0,12.0,57,0.00,,,0.00,Wunderground v.1.15,2013-03-15 08:40:00,
2013-03-15 04:50:00,23.5,11.3,29.83,West,260,4.0,4.0,59,0.00,,,0.00,Wunderground v.1.15,2013-03-15 08:50:00,
2013-03-15 05:00:00,23.5,11.3,29.83,West,268,4.0,4.0,59,0.00,,,0.00,Wunderground v.1.15,2013-03-15 09:00:00,
2013-03-15 05:10:00,23.5,11.3,29.83,WNW,290,4.0,4.0,59,0.00,,,0.00,Wunderground v.1.15,2013-03-15 09:10:00,
2013-03-15 05:20:00,23.5,11.3,29.83,WSW,256,4.0,12.0,59,0.00,,,0.00,Wunderground v.1.15,2013-03-15 09:20:00,
2013-03-15 05:30:00,23.5,11.3,29.84,WNW,295,4.0,12.0,59,0.00,,,0.00,Wunderground v.1.15,2013-03-15 09:30:00,
2013-03-15 05:40:00,23.4,11.2,29.84,WNW,285,5.0,5.0,59,0.00,,,0.00,Wunderground v.1.15,2013-03-15 09:40:00,
2013-03-15 05:50:00,23.4,11.2,29.84,WSW,255,4.0,4.0,59,0.00,,,0.00,Wunderground v.1.15,2013-03-15 09:50:00,
2013-03-15 06:00:00,23.3,11.1,29.85,East,82,4.0,4.0,59,0.00,,,0.00,Wunderground v.1.15,2013-03-15 10:00:00,
2013-03-15 06:10:00,23.2,11.0,29.85,West,263,4.0,4.0,59,0.00,,,0.00,Wunderground v.1.15,2013-03-15 10:10:00,
2013-03-15 06:20:00,23.1,10.9,29.85,WNW,295,4.0,12.0,59,0.00,,,0.00,Wunderground v.1.15,2013-03-15 10:20:00,
2013-03-15 06:30:00,23.1,10.9,29.85,NNW,335,4.0,4.0,59,0.00,,,0.00,Wunderground v.1.15,2013-03-15 10:30:00,
2013-03-15 06:40:00,23.0,10.8,29.85,SW,222,4.0,12.0,59,0.00,,,0.00,Wunderground v.1.15,2013-03-15 10:40:00,
2013-03-15 06:50:00,23.0,10.4,29.85,WNW,285,3.0,12.0,58,0.00,,,0.00,Wunderground v.1.15,2013-03-15 10:50:00,
2013-03-15 07:00:00,22.8,10.2,29.86,WNW,299,5.0,5.0,58,0.00,,,0.00,Wunderground v.1.15,2013-03-15 11:00:00,
2013-03-15 07:10:00,22.7,9.7,29.86,WSW,242,4.0,4.0,57,0.00,,,0.00,Wunderground v.1.15,2013-03-15 11:10:00,
2013-03-15 07:20:00,22.5,9.5,29.87,WSW,242,4.0,12.0,57,0.00,,,0.00,Wunderground v.1.15,2013-03-15 11:20:00,
2013-03-15 07:30:00,22.6,9.6,29.87,West,280,3.0,12.0,57,0.00,,,0.00,Wunderground v.1.15,2013-03-15 11:30:00,
2013-03-15 07:40:00,22.5,9.5,29.87,WSW,258,4.0,4.0,57,0.00,,,0.00,Wunderground v.1.15,2013-03-15 11:40:00,
2013-03-15 07:50:00,22.5,9.5,29.87,WNW,294,4.0,12.0,57,0.00,,,0.00,Wunderground v.1.15,2013-03-15 11:50:00,
2013-03-15 08:00:00,22.5,9.5,29.87,West,266,4.0,4.0,57,0.00,,,0.00,Wunderground v.1.15,2013-03-15 12:00:00,
2013-03-15 08:10:00,22.6,9.6,29.87,West,276,4.0,12.0,57,0.00,,,0.00,Wunderground v.1.15,2013-03-15 12:10:00,
2013-03-15 08:20:00,22.6,9.6,29.87,SW,236,4.0,12.0,57,0.00,,,0.00,Wunderground v.1.15,2013-03-15 12:20:00,
2013-03-15 08:30:00,22.9,10.3,29.87,WNW,293,3.0,12.0,58,0.00,,,0.00,Wunderground v.1.15,2013-03-15 12:30:00,
2013-03-15 08:40:00,23.3,9.9,29.88,WSW,245,4.0,12.0,56,0.00,,,0.00,Wunderground v.1.15,2013-03-15 12:40:00,
2013-03-15 08:50:00,23.9,10.5,29.87,WNW,294,4.0,12.0,56,0.00,,,0.00,Wunderground v.1.15,2013-03-15 12:50:00,
2013-03-15 09:00:00,24.2,10.3,29.88,WSW,256,4.0,12.0,55,0.00,,,0.00,Wunderground v.1.15,2013-03-15 13:00:00,
2013-03-15 09:10:00,24.3,10.4,29.88,WSW,250,4.0,12.0,55,0.00,,,0.00,Wunderground v.1.15,2013-03-15 13:10:00,
2013-03-15 09:20:00,24.5,10.6,29.87,WNW,293,4.0,12.0,55,0.00,,,0.00,Wunderground v.1.15,2013-03-15 13:20:00,
2013-03-15 09:30:00,25.1,11.2,29.87,West,267,4.0,12.0,55,0.00,,,0.00,Wunderground v.1.15,2013-03-15 13:30:00,
2013-03-15 09:40:00,25.2,10.9,29.87,NW,307,4.0,4.0,54,0.00,,,0.00,Wunderground v.1.15,2013-03-15 13:40:00,
2013-03-15 09:50:00,26.1,11.7,29.87,WNW,283,3.0,12.0,54,0.00,,,0.00,Wunderground v.1.15,2013-03-15 13:50:00,
2013-03-15 10:00:00,26.5,11.7,29.87,NW,309,4.0,4.0,53,0.00,,,0.00,Wunderground v.1.15,2013-03-15 14:00:00,
2013-03-15 10:10:00,27.0,12.1,29.87,WSW,248,4.0,4.0,53,0.00,,,0.00,Wunderground v.1.15,2013-03-15 14:10:00,
2013-03-15 10:20:00,26.7,11.4,29.87,WNW,285,4.0,12.0,52,0.00,,,0.00,Wunderground v.1.15,2013-03-15 14:20:00,
2013-03-15 10:30:00,26.9,12.0,29.87,WNW,290,4.0,12.0,53,0.00,,,0.00,Wunderground v.1.15,2013-03-15 14:30:00,
2013-03-15 10:40:00,27.6,12.7,29.86,WSW,238,4.0,4.0,53,0.00,,,0.00,Wunderground v.1.15,2013-03-15 14:40:00,
2013-03-15 10:50:00,27.9,12.1,29.86,West,267,4.0,4.0,51,0.00,,,0.00,Wunderground v.1.15,2013-03-15 14:50:00,
2013-03-15 11:00:00,28.1,11.8,29.86,West,274,4.0,4.0,50,0.00,,,0.00,Wunderground v.1.15,2013-03-15 15:00:00,
2013-03-15 11:10:00,28.2,12.4,29.86,WSW,256,4.0,12.0,51,0.00,,,0.00,Wunderground v.1.15,2013-03-15 15:10:00,
2013-03-15 11:20:00,29.2,12.4,29.85,West,272,3.0,12.0,49,0.00,,,0.00,Wunderground v.1.15,2013-03-15 15:20:00,
2013-03-15 11:30:00,29.9,13.5,29.85,WSW,245,3.0,12.0,50,0.00,,,0.00,Wunderground v.1.15,2013-03-15 15:30:00,
2013-03-15 11:40:00,30.2,13.3,29.85,NW,315,4.0,4.0,49,0.00,,,0.00,Wunderground v.1.15,2013-03-15 15:40:00,
2013-03-15 11:50:00,30.6,13.2,29.84,NNW,329,4.0,4.0,48,0.00,,,0.00,Wunderground v.1.15,2013-03-15 15:50:00,
2013-03-15 12:00:00,31.0,12.6,29.84,West,281,4.0,4.0,46,0.00,,,0.00,Wunderground v.1.15,2013-03-15 16:00:00,
2013-03-15 12:10:00,31.4,13.0,29.83,NNE,13,3.0,12.0,46,0.00,,,0.00,Wunderground v.1.15,2013-03-15 16:10:00,
2013-03-15 12:20:00,32.1,12.6,29.83,West,272,3.0,12.0,44,0.00,,,0.00,Wunderground v.1.15,2013-03-15 16:20:00,
2013-03-15 12:30:00,33.0,13.9,29.83,East,85,3.0,3.0,45,0.00,,,0.00,Wunderground v.1.15,2013-03-15 16:30:00,
2013-03-15 12:40:00,33.6,14.5,29.82,NW,326,3.0,3.0,45,0.00,,,0.00,Wunderground v.1.15,2013-03-15 16:40:00,
2013-03-15 12:50:00,33.7,13.0,29.82,WNW,290,3.0,12.0,42,0.00,,,0.00,Wunderground v.1.15,2013-03-15 16:50:00,
2013-03-15 13:00:00,33.7,13.0,29.81,West,276,3.0,12.0,42,0.00,,,0.00,Wunderground v.1.15,2013-03-15 17:00:00,
2013-03-15 13:10:00,34.5,12.6,29.80,WNW,302,3.0,12.0,40,0.00,,,0.00,Wunderground v.1.15,2013-03-15 17:10:00,
2013-03-15 13:20:00,35.6,14.7,29.80,NW,309,2.0,12.0,42,0.00,,,0.00,Wunderground v.1.15,2013-03-15 17:20:00,
2013-03-15 13:30:00,36.2,12.4,29.79,West,281,2.0,2.0,37,0.00,,,0.00,Wunderground v.1.15,2013-03-15 17:30:00,
2013-03-15 13:40:00,36.1,10.4,29.78,SW,235,3.0,3.0,34,0.00,,,0.00,Wunderground v.1.15,2013-03-15 17:40:00,
2013-03-15 13:50:00,37.6,19.2,29.77,North,354,2.0,12.0,47,0.00,,,0.00,Wunderground v.1.15,2013-03-15 17:50:00,
2013-03-15 14:00:00,37.1,19.7,29.77,East,83,4.0,4.0,49,0.00,,,0.00,Wunderground v.1.15,2013-03-15 18:00:00,
2013-03-15 14:10:00,37.2,19.8,29.76,SSW,208,3.0,12.0,49,0.00,,,0.00,Wunderground v.1.15,2013-03-15 18:10:00,
2013-03-15 14:20:00,36.9,21.3,29.76,SSW,200,3.0,3.0,53,0.00,,,0.00,Wunderground v.1.15,2013-03-15 18:20:00,
2013-03-15 14:30:00,36.6,19.7,29.75,SW,222,3.0,3.0,50,0.00,,,0.00,Wunderground v.1.15,2013-03-15 18:30:00,
2013-03-15 14:40:00,36.7,21.2,29.75,ESE,121,3.0,12.0,53,0.00,,,0.00,Wunderground v.1.15,2013-03-15 18:40:00,
2013-03-15 14:50:00,36.4,20.4,29.75,WSW,240,3.0,3.0,52,0.00,,,0.00,Wunderground v.1.15,2013-03-15 18:50:00,
2013-03-15 15:00:00,36.3,19.9,29.75,WSW,245,3.0,12.0,51,0.00,,,0.00,Wunderground v.1.15,2013-03-15 19:00:00,
2013-03-15 15:10:00,36.5,19.1,29.74,WSW,255,4.0,4.0,49,0.00,,,0.00,Wunderground v.1.15,2013-03-15 19:10:00,
2013-03-15 15:20:00,36.4,18.6,29.73,WSW,237,4.0,4.0,48,0.00,,,0.00,Wunderground v.1.15,2013-03-15 19:20:00,
2013-03-15 15:30:00,36.5,19.1,29.73,WNW,293,5.0,5.0,49,0.00,,,0.00,Wunderground v.1.15,2013-03-15 19:30:00,
2013-03-15 15:40:00,36.8,19.4,29.73,SSW,212,3.0,12.0,49,0.00,,,0.00,Wunderground v.1.15,2013-03-15 19:40:00,
2013-03-15 15:50:00,36.4,18.1,29.72,SSW,212,5.0,5.0,47,0.00,,,0.00,Wunderground v.1.15,2013-03-15 19:50:00,
2013-03-15 16:00:00,36.8,20.3,29.72,SSW,208,3.0,12.0,51,0.00,,,0.00,Wunderground v.1.15,2013-03-15 20:00:00,
2013-03-15 16:10:00,36.4,20.9,29.72,SW,228,4.0,4.0,53,0.00,,,0.00,Wunderground v.1.15,2013-03-15 20:10:00,
2013-03-15 16:20:00,36.0,20.5,29.72,SW,221,3.0,12.0,53,0.00,,,0.00,Wunderground v.1.15,2013-03-15 20:20:00,
2013-03-15 16:30:00,35.5,22.2,29.71,SSW,205,3.0,12.0,58,0.00,,,0.00,Wunderground v.1.15,2013-03-15 20:30:00,
2013-03-15 16:40:00,35.7,22.8,29.70,WSW,252,3.0,3.0,59,0.00,,,0.00,Wunderground v.1.15,2013-03-15 20:40:00,
2013-03-15 16:50:00,35.6,23.5,29.70,WSW,245,4.0,4.0,61,0.00,,,0.00,Wunderground v.1.15,2013-03-15 20:50:00,
2013-03-15 17:00:00,36.4,23.4,29.70,SW,236,3.0,12.0,59,0.00,,,0.00,Wunderground v.1.15,2013-03-15 21:00:00,
2013-03-15 17:10:00,36.8,24.6,29.70,WSW,248,4.0,4.0,61,0.00,,,0.00,Wunderground v.1.15,2013-03-15 21:10:00,
2013-03-15 17:20:00,36.5,24.7,29.69,WNW,285,4.0,4.0,62,0.00,,,0.00,Wunderground v.1.15,2013-03-15 21:20:00,
2013-03-15 17:30:00,36.2,25.2,29.69,SW,226,5.0,12.0,64,0.00,,,0.00,Wunderground v.1.15,2013-03-15 21:30:00,
2013-03-15 17:40:00,35.8,25.5,29.69,NW,312,4.0,4.0,66,0.00,,,0.00,Wunderground v.1.15,2013-03-15 21:40:00,
2013-03-15 17:50:00,36.1,26.2,29.69,West,270,4.0,4.0,67,0.00,,,0.00,Wunderground v.1.15,2013-03-15 21:50:00,
2013-03-15 18:00:00,36.1,26.6,29.69,WSW,257,4.0,12.0,68,0.00,,,0.00,Wunderground v.1.15,2013-03-15 22:00:00,
2013-03-15 18:10:00,36.1,26.2,29.69,West,270,5.0,5.0,67,0.00,,,0.00,Wunderground v.1.15,2013-03-15 22:10:00,
2013-03-15 18:20:00,36.0,26.8,29.69,WNW,289,4.0,4.0,69,0.00,,,0.00,Wunderground v.1.15,2013-03-15 22:20:00,
2013-03-15 18:30:00,36.1,26.2,29.68,SW,232,5.0,5.0,67,0.00,,,0.00,Wunderground v.1.15,2013-03-15 22:30:00,
2013-03-15 18:40:00,35.9,27.4,29.68,West,260,4.0,4.0,71,0.00,,,0.00,Wunderground v.1.15,2013-03-15 22:40:00,
2013-03-15 18:50:00,35.8,27.7,29.68,WNW,293,3.0,12.0,72,0.00,,,0.00,Wunderground v.1.15,2013-03-15 22:50:00,
2013-03-15 19:00:00,36.0,27.8,29.68,WNW,302,5.0,12.0,72,0.00,,,0.00,Wunderground v.1.15,2013-03-15 23:00:00,
2013-03-15 19:10:00,36.1,28.9,29.68,SSW,207,4.0,12.0,75,0.00,,,0.00,Wunderground v.1.15,2013-03-15 23:10:00,
2013-03-15 19:20:00,36.2,28.4,29.68,West,266,4.0,4.0,73,0.00,,,0.00,Wunderground v.1.15,2013-03-15 23:20:00,
2013-03-15 19:30:00,36.3,28.5,29.68,West,262,4.0,4.0,73,0.00,,,0.00,Wunderground v.1.15,2013-03-15 23:30:00,
2013-03-15 19:40:00,36.4,28.6,29.68,WSW,255,5.0,5.0,73,0.00,,,0.00,Wunderground v.1.15,2013-03-15 23:40:00,
2013-03-15 19:50:00,36.5,29.0,29.69,WSW,239,4.0,12.0,74,0.00,,,0.00,Wunderground v.1.15,2013-03-15 23:50:00,
2013-03-15 20:00:00,36.5,28.7,29.69,NNW,332,4.0,12.0,73,0.00,,,0.00,Wunderground v.1.15,2013-03-16 00:00:00,
2013-03-15 20:10:00,36.5,29.0,29.69,WNW,287,4.0,4.0,74,0.00,,,0.00,Wunderground v.1.15,2013-03-16 00:10:00,
2013-03-15 20:20:00,36.5,29.0,29.70,WSW,242,3.0,12.0,74,0.00,,,0.00,Wunderground v.1.15,2013-03-16 00:20:00,
2013-03-15 20:30:00,36.7,28.9,29.69,WNW,293,4.0,4.0,73,0.00,,,0.00,Wunderground v.1.15,2013-03-16 00:30:00,
2013-03-15 20:40:00,36.6,28.8,29.69,West,263,3.0,12.0,73,0.00,,,0.00,Wunderground v.1.15,2013-03-16 00:40:00,
2013-03-15 20:50:00,36.7,28.9,29.69,SSW,211,3.0,12.0,73,0.00,,,0.00,Wunderground v.1.15,2013-03-16 00:50:00,
2013-03-15 21:00:00,36.8,28.6,29.69,WNW,292,3.0,3.0,72,0.00,,,0.00,Wunderground v.1.15,2013-03-16 01:00:00,
2013-03-15 21:10:00,37.2,28.3,29.69,West,260,4.0,12.0,70,0.00,,,0.00,Wunderground v.1.15,2013-03-16 01:10:00,
2013-03-15 21:20:00,37.5,27.9,29.70,West,278,4.0,4.0,68,0.00,,,0.00,Wunderground v.1.15,2013-03-16 01:20:00,
2013-03-15 21:30:00,37.6,28.0,29.70,WSW,248,4.0,4.0,68,0.00,,,0.00,Wunderground v.1.15,2013-03-16 01:30:00,
2013-03-15 21:40:00,37.6,27.6,29.70,West,274,3.0,3.0,67,0.00,,,0.00,Wunderground v.1.15,2013-03-16 01:40:00,
2013-03-15 21:50:00,37.6,28.0,29.70,WNW,294,3.0,12.0,68,0.00,,,0.00,Wunderground v.1.15,2013-03-16 01:50:00,
2013-03-15 22:00:00,37.3,27.7,29.69,West,271,2.0,2.0,68,0.00,,,0.00,Wunderground v.1.15,2013-03-16 02:00:00,
2013-03-15 22:10:00,37.0,27.8,29.69,West,267,3.0,12.0,69,0.00,,,0.00,Wunderground v.1.15,2013-03-16 02:10:00,
2013-03-15 22:20:00,36.8,27.6,29.69,West,274,2.0,2.0,69,0.00,,,0.00,Wunderground v.1.15,2013-03-16 02:20:00,
2013-03-15 22:30:00,36.5,27.6,29.69,West,271,2.0,12.0,70,0.00,,,0.00,Wunderground v.1.15,2013-03-16 02:30:00,
2013-03-15 22:40:00,36.4,27.9,29.69,West,278,2.0,12.0,71,0.00,,,0.00,Wunderground v.1.15,2013-03-16 02:40:00,
2013-03-15 22:50:00,36.1,27.6,29.69,West,280,2.0,2.0,71,0.00,,,0.00,Wunderground v.1.15,2013-03-16 02:50:00,
2013-03-15 23:00:00,35.9,27.7,29.69,WNW,290,2.0,12.0,72,0.00,,,0.00,Wunderground v.1.15,2013-03-16 03:00:00,
2013-03-15 23:10:00,36.0,27.8,29.69,ESE,117,3.0,3.0,72,0.00,,,0.00,Wunderground v.1.15,2013-03-16 03:10:00,
2013-03-15 23:20:00,36.0,27.8,29.69,WSW,248,3.0,12.0,72,0.00,,,0.00,Wunderground v.1.15,2013-03-16 03:20:00,
2013-03-15 23:30:00,35.8,27.7,29.69,West,281,2.0,12.0,72,0.00,,,0.00,Wunderground v.1.15,2013-03-16 03:30:00,
2013-03-15 23:40:00,35.5,27.7,29.69,West,281,2.0,2.0,73,0.00,,,0.00,Wunderground v.1.15,2013-03-16 03:40:00,
2013-03-15 23:50:00,35.3,27.8,29.69,West,281,2.0,12.0,74,0.00,,,0.00,Wunderground v.1.15,2013-03-16 03:50:00,